This is the latest recevied weather packets stored in our database for station/object KG4GJX. If no packets are shown the sender has not sent any weather packets the latest 10 day(s).
| Time | Temp. | Humidity | Pressure | Rain* | Wind** | Luminosity | Snow |
|---|---|---|---|---|---|---|---|
| 1777742658 | 17.78° C | 46% | 1014.9 hPa | 0 mm | - | - | - |
| 1777741996 | 17.78° C | 43% | 1014.9 hPa | 0 mm | - | - | - |
| 1777741333 | 17.22° C | 43% | 1014.9 hPa | 0 mm | - | - | - |
| 1777740671 | 17.22° C | 43% | 1015.2 hPa | 0 mm | - | - | - |
| 1777740009 | 16.67° C | 46% | 1015.2 hPa | 0 mm | - | - | - |
| 1777739346 | 16.67° C | 43% | 1015.2 hPa | 0 mm | - | - | - |
| 1777738683 | 16.67° C | 44% | 1015.2 hPa | 0 mm | - | - | - |
| 1777738020 | 16.67° C | 49% | 1015.2 hPa | 0 mm | - | - | - |
| 1777737358 | 16.11° C | 50% | 1015.2 hPa | 0 mm | - | - | - |
| 1777736695 | 15.56° C | 46% | 1015.2 hPa | 0 mm | - | - | - |
| 1777736033 | 15.56° C | 50% | 1015.2 hPa | 0 mm | - | - | - |
| 1777735370 | 15.56° C | 46% | 1014.9 hPa | 0 mm | - | - | - |
| 1777734708 | 16.11° C | 49% | 1014.9 hPa | 0 mm | - | - | - |
| 1777734045 | 15.56° C | 49% | 1014.9 hPa | 0 mm | - | - | - |
| 1777733383 | 15° C | 51% | 1014.9 hPa | 0 mm | - | - | - |
| 1777732720 | 15° C | 52% | 1014.9 hPa | 0 mm | - | - | - |
| 1777732058 | 15° C | 54% | 1014.5 hPa | 0 mm | - | - | - |
| 1777731396 | 14.44° C | 54% | 1014.5 hPa | 0 mm | - | - | - |
| 1777730733 | 14.44° C | 57% | 1014.5 hPa | 0 mm | - | - | - |
| 1777730071 | 13.89° C | 59% | 1014.5 hPa | 0 mm | - | - | - |
| 1777729408 | 13.33° C | 58% | 1014.5 hPa | 0 mm | - | - | - |
| 1777728746 | 13.33° C | 64% | 1014.5 hPa | 0 mm | - | - | - |
| 1777728084 | 12.78° C | 66% | 1014.5 hPa | 0 mm | - | - | - |
| 1777727422 | 12.22° C | 64% | 1014.5 hPa | 0 mm | - | - | - |
| 1777726759 | 11.67° C | 69% | 1014.5 hPa | 0 mm | - | - | - |
* Rain latest hour (hover to see other rain measurements)
** Current wind speed in m/s (hover to see current wind gust speed)